Flag for Canada Weather past 2 weeks in Shawinigan, Quebec, Canada

Now
39 °F

Chilly.


Feels Like: 32 °F
Forecast: 34 / 50 °F
Wind: 12 mph from North

Location: Shawinigan CS

Current Time: Apr 25, 2015 at 11:03:28 AM

Latest Report: Apr 25, 2015 at 10:00 AM


Visibility: N/A

Pressure: 29.73 "Hg

Humidity: 67%

Dew point: 29 °F

Location of ShawiniganLocation

Historic Weather in Shawinigan — Graph

°F

Shawinigan temperature yesterday

Maximum temperature yesterday: 38 °F (at 1:00 PM)
Minimum temperature yesterday: 31 °F (at 8:00 AM)
Average temperature yesterday: 35 °F

Past Weeks' High & Low Weather Summary

 TemperatureHumidityPressure
High67 °F (Apr 17, 3:00 PM)99% (Apr 21, 7:00 AM)30.48 "Hg (Apr 21, 7:00 AM)
Low28 °F (Apr 16, 5:00 AM)15% (Apr 15, 5:00 PM)29.39 "Hg (Apr 10, 7:00 PM)
Average42 °F62%29.89 "Hg
* Reported Apr 10 10:00 AM — Apr 25 10:00 AM, Shawinigan, Weather by CustomWeather, © 2015

Note: Actual official high and low records may vary slightly from our data, if they occured in-between our weather recording intervals... More about our weather records

Advertising

Shawinigan weather history for previous 24 hours

 ConditionsComfort  
Time TempWeatherWind HumidityBarometerVisibility
10:00 AM
Sat, Apr 25
39 °FChilly.12 mph67%29.73 "HgN/A
9:00 AM38 °FChilly.12 mph67%29.73 "HgN/A
8:00 AM36 °FChilly.12 mph69%29.73 "HgN/A
7:00 AM35 °FChilly.8 mph72%29.73 "HgN/A
6:00 AM35 °FChilly.7 mph73%29.72 "HgN/A
5:00 AM35 °FChilly.9 mph72%29.72 "HgN/A
4:00 AM34 °FChilly.7 mph73%29.72 "HgN/A
3:00 AM34 °FChilly.10 mph74%29.72 "HgN/A
2:00 AM34 °FChilly.12 mph74%29.72 "HgN/A
1:00 AM33 °FChilly.12 mph77%29.74 "HgN/A
12:00 AM34 °FChilly.9 mph74%29.75 "HgN/A
11:00 PM
Fri, Apr 24
34 °FChilly.8 mph71%29.75 "HgN/A
10:00 PM35 °FChilly.10 mph67%29.76 "HgN/A
9:00 PM35 °FChilly.8 mph65%29.77 "HgN/A
7:00 PM36 °FChilly.9 mph63%29.76 "HgN/A
6:00 PM37 °FChilly.9 mph61%29.76 "HgN/A
5:00 PM37 °FChilly.9 mph59%29.75 "HgN/A
4:00 PM37 °FChilly.9 mph58%29.73 "HgN/A
3:00 PM38 °FChilly.9 mph57%29.72 "HgN/A
2:00 PM38 °FChilly.10 mph55%29.72 "HgN/A
1:00 PM38 °FChilly.8 mph57%29.72 "HgN/A
12:00 PM35 °FChilly.8 mph62%29.72 "HgN/A
11:00 AM34 °FChilly.8 mph66%29.72 "HgN/A
Weather by CustomWeather, © 2015

See weather overviewHow to use our weather pages